Location: Bakov nad Jizerou
(50.4784°N, 14.9394°E)
Time: 09:47:57
(UTC+00:00)

Cosmos 1536 Rocket - Pass Details

Date: 25 October 2021
Orbit: 605 x 633 km, 82.5° (Epoch: 28 November)

Event Time Altitude Azimuth Distance (km) Brightness Sun altitude
Rises 03:10:31 0° 139° (SE) 2,889 7.4 -24.2°
Reaches altitude 10° 03:13:40 10° 114° (ESE) 1,983 6.9 -23.7°
Maximum altitude 03:15:57 14° 83° (E) 1,724 6.8 -23.4°
Drops below altitude 10° 03:18:15 10° 51° (NE) 1,983 7.0 -23.0°
Sets 03:21:24 0° 27° (NNE) 2,888 7.5 -22.5°
